Location: Friaudour
(46.0460°N, 1.2873°E)
Time: 01:26:51
(UTC+00:00)

CENTAUR R/B - Visible Passes

Search period start: 24 October 2020 00:00
Search period end: 03 November 2020 00:00
Orbit: 755 x 1433 km, 63.4° (Epoch: 02 October)

Date Brightness Start Highest point End Pass type
(mag) Time Alt. Az. Time Alt. Az. Time Alt. Az.
24 Oct 3.7 03:20:44 30° SSE 03:22:35 36° ESE 03:28:40 10° NE visible
24 Oct 2.8 05:07:58 15° WSW 05:12:57 53° NW 05:20:02 10° NE visible
25 Oct 4.4 02:34:38 21° ESE 02:34:50 21° ESE 02:39:34 10° ENE visible
25 Oct 2.4 04:21:51 37° SW 04:24:30 78° NW 04:31:38 10° NE visible
26 Oct 5.1 01:48:26 11° E 01:48:26 11° E 01:48:57 10° E visible
26 Oct 2.6 03:35:39 64° SSE 03:36:15 68° ESE 03:43:11 10° NE visible
26 Oct 3.4 05:22:52 15° W 05:27:32 35° NNW 05:34:13 10° NNE visible
27 Oct 3.7 02:49:21 38° E 02:49:21 38° E 02:54:34 10° NE visible
27 Oct 2.9 04:36:34 35° W 04:38:48 48° NW 04:45:49 10° NE visible
28 Oct 4.7 02:03:00 19° ENE 02:03:00 19° ENE 02:05:36 10° ENE visible
28 Oct 2.4 03:50:12 71° NW 03:50:17 71° NW 03:57:27 10° NE visible
28 Oct 3.9 05:37:23 12° WNW 05:42:21 26° NNW 05:48:33 10° NNE visible
29 Oct 3.2 03:03:46 51° NE 03:03:46 51° NE 03:09:01 10° NE visible
29 Oct 3.5 04:50:57 26° WNW 04:53:25 33° NNW 05:00:01 10° NNE visible
30 Oct 4.4 02:17:17 26° ENE 02:17:17 26° ENE 02:20:27 10° NE visible
30 Oct 3.0 04:04:29 45° NW 04:04:39 45° NW 04:11:37 10° NE visible
30 Oct 4.2 05:52:15 10° WNW 05:57:24 22° N 06:03:10 10° NE visible
31 Oct 5.2 01:30:46 13° ENE 01:30:46 13° ENE 01:31:35 10° NE visible
31 Oct 3.3 03:17:57 47° NNE 03:17:57 47° NNE 03:23:14 10° NE visible
31 Oct 3.9 05:05:09 18° WNW 05:08:18 25° NNW 05:14:24 10° NE visible
01 Nov 4.2 02:31:23 30° NE 02:31:23 30° NE 02:34:50 10° NE visible
01 Nov 3.5 04:18:35 30° NW 04:19:20 31° NNW 04:25:51 10° NNE visible
02 Nov 5.0 01:44:48 17° NE 01:44:48 17° NE 01:46:18 10° NE visible
02 Nov 3.6 03:31:59 37° N 03:31:59 37° N 03:37:24 10° NNE visible
02 Nov 4.3 05:19:10 13° NW 05:23:23 21° N 05:29:06 10° NE visible
